Welcome to the New NWS' Forecast!
Most changes are behind the scenes, but click here for differences you might notice.
Latest weather observations around

Birmingham, Birmingham International Airport (KBHM)

Using International System of Units (Switch to English Units)
Date/ Time (CDT) Wind (kph) Vis. (km) Weather Sky Cond. Temp (°C) Rel. Humidity Wind Chill (°C) Heat Index (°C) Pressure Precip. (cm)
Air Dwpt 6 hour Altimeter (hPa) Sea level (hPa) 1 hr 3 hr 6 hr
Max Min
Aug 16 22:53 S 17 16.09 Partly Cloudy SCT250 27 22     76%   29 1021.7 1020.8      
Aug 16 21:53 S 17 16.09 Mostly Cloudy SCT050 BKN250 27 22     74%   30 1021.7 1020.8      
Aug 16 20:53 S 15 16.09 Mostly Cloudy SCT050 BKN250 28 23     72%   32 1020.7 1019.8      
Aug 16 19:53 SSE 17 16.09 Mostly Cloudy SCT055 BKN250 29 21     63%   31 1020.3 1019.4      
Aug 16 18:53 SSE 11 16.09 Cloudy SCT055 OVC250 31 21     55%   34 1019.7 1018.8      
Aug 16 17:53   16.09 Mostly Cloudy SCT050 BKN250 32 21     52%   35 1019.3 1018.2      
Aug 16 16:53 S 21 16.09 Mostly Cloudy SCT050 BKN250 34 21     47%   37 1019.3 1018.3      
Aug 16 15:53 SSW 18 16.09 Mostly Cloudy SCT050 BKN250 33 21     49%   37 1019.3 1018.3      
Aug 16 14:53 S 13 16.09 Mostly Cloudy FEW049 FEW070 BKN250 33 21     49%   37 1019.7 1018.7      
Aug 16 13:53 SW 5 16.09 Mostly Cloudy BKN045 BKN250 32 21     52%   35 1020.3 1019.4      
Aug 16 12:53 S 11 16.09 Mostly Cloudy SCT045 BKN250 32 22     54%   36 1021.3 1020.1      
Aug 16 11:53 SSW 17 16.09 Mostly Cloudy FEW044 BKN250 32 22     55%   35 1021.7 1020.6      
Aug 16 10:53 SSW 15 16.09 Mostly Cloudy SCT032 BKN250 31 22     59%   35 1022 1021      
Aug 16 09:53 S 13 16.09 Mostly Cloudy FEW035 BKN250 29 23     68%   33 1022 1020.8      
Aug 16 08:53 S 11 16.09 Mostly Cloudy FEW013 BKN250 28 23     77%   31 1021.7 1020.6      
Aug 16 08:31 S 11 16.09 Partly Cloudy SCT012 27 23     82%   29 1022        
Aug 16 07:53 SSW 11 16.09 Mostly Cloudy BKN012 BKN250 26 23     85%   28 1022 1021.1      
Aug 16 07:47 SSW 11 16.09 Mostly Cloudy BKN012 BKN250 26 23     84%   28 1022        
Aug 16 06:53 ESE 5 16.09 Mostly Clear FEW250 24 23     91%   25 1021.3 1020.2      
Aug 16 05:53 SE 5 16.09 Mostly Clear FEW250 24 22     90%   25 1020.3 1019.2      
Aug 16 04:53 SSE 8 16.09 Clear CLR 25 22     84%   26 1020 1018.9      
Aug 16 03:53 SSE 8 16.09 Clear CLR 25 22     84%   26 1019.7 1018.5      
Aug 16 02:53 SSW 11 16.09 Clear CLR 26 22     82%   26 1019.3 1018.2      
Aug 16 01:53 Calm 16.09 Clear CLR 26 22     79%   26 1019.3 1018.3      
Aug 16 00:53 5 16.09 Clear CLR 26 21     74%   28 1019.7 1018.6      
Aug 15 23:53 Calm 16.09 Clear CLR 27 21     71%   28 1019.7 1018.4      
Aug 15 22:53 SSE 5 16.09 Clear CLR 27 21     67%   29 1019 1018      
Aug 15 21:53 SE 8 16.09 Clear CLR 28 21     67%   30 1019 1018      
Aug 15 20:53 ESE 5 16.09 Clear CLR 28 21     65%   31 1019 1017.9      
Aug 15 19:53 SSE 5 16.09 Mostly Clear FEW250 30 21     57%   32 1018.6 1017.6      
Aug 15 18:53 SSE 8 16.09 Partly Cloudy SCT250 32 20     50%   34 1018.3 1017.2      
Aug 15 17:53 SSE 13 16.09 Mostly Cloudy FEW060 BKN250 33 21     49%   36 1018 1017.1      
Aug 15 16:53 S 21 16.09 Mostly Cloudy FEW060 SCT075 BKN090 33 19     45%   35 1018 1016.9      
Aug 15 15:53 SSE 13 16.09 Cloudy BKN065 BKN080 OVC250 33 19     44%   34 1018 1017.1      
Aug 15 14:53 WSW 8 16.09 Mostly Cloudy SCT060 BKN250 33 19     45%   35 1018.3 1017.4      
Aug 15 13:53 SW 8 16.09 Mostly Cloudy FEW060 FEW150 BKN250 33 20     46%   36 1019 1017.9      
Aug 15 12:53 ESE 9 16.09 Mostly Cloudy FEW055 FEW150 BKN250 34 19     43%   36 1019.3 1018.4      
Aug 15 11:53 S 13 16.09 Mostly Cloudy FEW050 FEW150 BKN250 33 20     46%   36 1020 1018.9      
Aug 15 10:53 SSE 13 16.09 Mostly Cloudy FEW150 BKN250 33 21     49%   37 1020 1019      
Aug 15 09:53 5 14.48 Mostly Cloudy BKN250 29 22     63%   32 1020 1019      
Aug 15 08:53 Calm 16.09 Mostly Cloudy BKN250 28 22     67%   31 1020 1019      
Notice The following observation data may not be complete
Aug 15 07:53 Calm 16.09 Mostly Cloudy SCT150 BKN250   22      %     1019.7 1018.5      
Aug 15 06:53 Calm 14.48 Mostly Cloudy BKN150 BKN250 23 21     90%   23 1019 1018      
Aug 15 05:53 Calm 16.09 Partly Cloudy SCT250 22 21     91%   23 1018.6 1017.7      
Aug 15 04:53 Calm 16.09 Partly Cloudy SCT250 23 21     90%   23 1018 1017.1      
Aug 15 03:53 Calm 16.09 Mostly Clear FEW250 23 22     91%   24 1018 1016.9      
Aug 15 02:53 Calm 16.09 Clear CLR 24 22     88%   25 1018.3 1017.4      
Aug 15 01:53 Calm 16.09 Clear CLR 24 22     85%   25 1018.3 1017.4      
Aug 15 00:53 SE 8 16.09 Clear CLR 25 22     82%   26 1019 1017.7      
Aug 14 23:53 SE 5 16.09 Clear CLR 26 22     82%   26 1018.6 1017.7      
Aug 14 22:53 Calm 16.09 Clear CLR 27 22     74%   29 1018.3 1017.3      
Aug 14 21:53 Calm 16.09 Clear CLR 27 21     69%   29 1018.3 1017.1      
Aug 14 20:53 E 8 16.09 Mostly Clear FEW250 27 20     65%   29 1017.6 1016.5      
Aug 14 19:53 N 5 16.09 Partly Cloudy SCT250 29 20     59%   31 1016.6 1015.8      
Aug 14 18:53 WNW 13 16.09 Partly Cloudy SCT250 32 18     45%   33 1016.9 1015.9      
Aug 14 17:53 NNW 11 16.09 Partly Cloudy FEW070 SCT250 33 18     40%   34 1016.6 1015.6      
Aug 14 16:53 W 11 16.09 Partly Cloudy FEW065 SCT250 33 18     40%   34 1016.9 1015.9      
Aug 14 15:53 NNW 17 16.09 Mostly Cloudy SCT065 BKN250 34 17     37%   35 1016.6 1015.7      
Aug 14 14:53 W 15 16.09 Partly Cloudy FEW060 SCT250 34 17     37%   35 1016.9 1016.1      
Aug 14 13:53 W 9 16.09 Mostly Clear FEW060 FEW250 33 18     40%   34 1017.6 1016.6      
Aug 14 12:53 9 16.09 Mostly Clear FEW060 32 17     40%   32 1018.3 1017.2      
Aug 14 11:53 5 16.09 Mostly Clear FEW060 FEW120 FEW250 32 17     41%   33 1018.6 1017.6      
Aug 14 10:53 NNW 8 16.09 Mostly Clear FEW120 FEW250 32 17     41%   32 1019 1017.9      
Aug 14 09:53 5 16.09 Mostly Clear FEW120 FEW250 31 18     48%   32 1018.6 1017.6      
Aug 14 08:53 N 5 16.09 Mostly Clear FEW120 FEW250 28 19     57%   30 1018.6 1017.6      
Aug 14 07:53 Calm 16.09 Partly Cloudy FEW110 SCT250 25 18     64%   25 1018.6 1017.7      
Aug 14 05:53 Calm 16.09 Partly Cloudy SCT250 21 18     84%     1018 1016.9      
Aug 14 04:53 Calm 16.09 Partly Cloudy SCT250 21 18     84%     1017.3 1016.4      
Aug 14 02:53 Calm 16.09 Clear CLR 22 19     87%   22 1017.3 1016.1      
Aug 14 01:53 Calm 16.09 Clear CLR 22 19     84%   22 1017.6 1016.6      
Aug 14 00:53 NNE 5 16.09 Clear CLR 23 20     84%   23 1017.6 1016.8      
Aug 13 23:53 Calm 16.09 Clear CLR 25 20     74%   25 1018 1016.9      
May 13 22:53 Calm 16.09 Clear CLR 23 18     73%   23 1019 1018      
May 13 16:53 NNW 11 16.09 Mostly Clear FEW065 33 14     33%   32 1018 1017      
May 13 13:53 9 16.09 Mostly Clear FEW065 32 16     38%   32 1020 1019.2      
May 12 16:53 S 11 16.09 Mostly Clear FEW250 32 12     29%   30 1019.3 1018.5      
May 12 08:53 Calm 16.09 Clear CLR 26 14     50%   26 1022.7 1021.8      
May 12 03:53 Calm 16.09 Clear CLR 18 15     84%     1020.3 1019.4      
May 11 20:53 SSE 5 16.09 Clear CLR 26 14     50%   26 1019.7 1018.6      
Jun 12 03:53 SSE 8 16.09 Mostly Clear FEW040 23 22     91%   24 1021 1020.2      
Jun 11 23:53 SSE 8 16.09 Mostly Clear FEW050 26 21     74%   28 1021 1019.9      
Jun 11 07:53 SE 15 16.09 Partly Cloudy SCT065 SCT250 24 19     74%   24 1021.7 1020.7      
Jun 10 13:53 ESE 15 16.09 Mostly Cloudy SCT060 BKN075 30 14     39%   30 1019 1018      
Jun 10 11:53 5 16.09 Partly Cloudy SCT070 28        %     1019.7 1018.9      
Jun 08 22:53 Calm 16.09 Clear CLR 20 15     73%     1014.2 1013.4      
Jun 08 20:53 N 11 16.09 Mostly Clear FEW250 21 14     66%     1012.9 1012.2      
Jun 07 18:53   16.09 Mostly Clear FEW065 FEW250 26 12     42%   26 1011.5 1010.7      
Jun 06 03:11 NE 8 16.09 Mostly Cloudy FEW007 FEW022 BKN028 22 21     96%   22 1009.5        
Jun 06 02:53 NNE 8 16.09 Partly Cloudy SCT120 22 21     96%   22 1009.5 1008.5      
Jun 05 19:53 Calm 16.09 Light Rain FEW020 SCT120 OVC250 22 21     93%   23 1009.8 1009.1 0    
Jun 05 14:53 Calm 16.09 Cloudy BKN065 BKN100 OVC250 24 21     84%   25 1010.5 1009.8 0